QPF
0.07 0.09 0.10 0.10 0.10 0.07 0.07 0.07 0.08 0.11 0.11 0.11 0.07 0.05 0.05 0.04 0.04 0.04 0.05 0.04 0.03 0.03 0.04 0.05 0.06 0.06 0.06 0.06 0.06 0.05 0.05 0.05 0.04 0.04 0.04 0.04 0.05 0.06 0.07 0.07 0.07 0.07 0.07
0.08 0.10 0.09 0.08 0.07 0.07 0.09 0.10 0.11 0.14 0.12 0.10 0.07 0.05 0.06 0.07 0.07 0.05 0.08 0.06 0.03 0.02 0.03 0.03 0.04 0.05 0.05 0.05 0.05 0.04 0.05 0.05 0.05 0.04 0.03 0.02 0.03 0.05 0.08 0.09 0.08 0.07 0.06
0.08 0.10 0.07 0.06 0.05 0.05 0.10 0.12 0.14 0.16 0.13 0.10 0.07 0.06 0.07 0.07 0.06 0.05 0.07 0.06 0.03 0.02 0.03 0.03 0.03 0.04 0.05 0.04 0.04 0.04 0.03 0.03 0.03 0.02 0.02 0.02 0.03 0.04 0.06 0.07 0.08 0.06 0.04
0.07 0.09 0.08 0.06 0.06 0.07 0.13 0.17 0.16 0.16 0.13 0.11 0.09 0.07 0.07 0.05 0.06 0.05 0.04 0.04 0.04 0.03 0.02 0.02 0.03 0.03 0.04 0.04 0.04 0.04 0.04 0.03 0.03 0.02 0.02 0.02 0.03 0.04 0.05 0.06 0.07 0.07 0.06
0.04 0.06 0.07 0.08 0.10 0.15 0.14 0.16 0.16 0.14 0.13 0.11 0.08 0.07 0.04 0.03 0.05 0.03 0.03 0.03 0.04 0.04 0.03 0.02 0.02 0.03 0.03 0.05 0.05 0.05 0.03 0.03 0.02 0.02 0.01 0.02 0.03 0.03 0.04 0.07 0.08 0.09 0.07
0.02 0.03 0.05 0.07 0.08 0.11 0.13 0.14 0.15 0.14 0.12 0.10 0.06 0.06 0.04 0.03 0.02 0.03 0.02 0.03 0.04 0.03 0.04 0.04 0.04 0.04 0.03 0.04 0.05 0.04 0.03 0.03 0.02 0.03 0.02 0.02 0.02 0.02 0.03 0.06 0.09 0.10 0.08
0.04 0.04 0.04 0.06 0.07 0.11 0.13 0.12 0.13 0.12 0.10 0.08 0.08 0.08 0.06 0.03 0.03 0.02 0.01 0.02 0.03 0.03 0.04 0.04 0.04 0.05 0.05 0.04 0.04 0.04 0.03 0.03 0.03 0.03 0.03 0.03 0.03 0.03 0.04 0.06 0.08 0.09 0.08
0.03 0.03 0.03 0.04 0.06 0.09 0.10 0.10 0.10 0.09 0.07 0.06 0.09 0.12 0.11 0.08 0.04 0.02 0.02 0.02 0.02 0.03 0.03 0.03 0.03 0.05 0.04 0.06 0.04 0.04 0.04 0.03 0.03 0.03 0.03 0.03 0.02 0.02 0.04 0.06 0.10 0.11 0.09
0.03 0.03 0.03 0.03 0.05 0.06 0.08 0.08 0.07 0.08 0.08 0.07 0.06 0.08 0.11 0.12 0.09 0.04 0.02 0.01 0.02 0.01 0.01 0.01 0.01 0.03 0.04 0.06 0.05 0.04 0.03 0.03 0.03 0.03 0.03 0.03 0.03 0.02 0.03 0.04 0.08 0.11 0.10
0.01 0.02 0.03 0.04 0.04 0.04 0.06 0.06 0.05 0.05 0.08 0.10 0.08 0.06 0.08 0.09 0.11 0.10 0.05 0.03 0.03 0.02 0.01 0.01 0.02 0.02 0.03 0.03 0.03 0.03 0.03 0.03 0.04 0.04 0.04 0.04 0.03 0.03 0.03 0.04 0.05 0.06 0.08
0.01 0.01 0.01 0.03 0.03 0.03 0.04 0.05 0.06 0.06 0.07 0.08 0.09 0.07 0.07 0.07 0.07 0.09 0.09 0.07 0.05 0.03 0.02 0.02 0.02 0.02 0.01 0.01 0.02 0.03 0.02 0.02 0.03 0.04 0.05 0.05 0.04 0.04 0.05 0.06 0.06 0.06 0.05
0.01 0.01 0.01 0.03 0.03 0.04 0.05 0.05 0.06 0.05 0.05 0.06 0.06 0.05 0.05 0.05 0.07 0.08 0.10 0.09 0.06 0.03 0.03 0.03 0.03 0.03 0.02 0.02 0.02 0.02 0.01 0.01 0.03 0.05 0.06 0.06 0.05 0.05 0.06 0.07 0.07 0.06 0.05
0.02 0.02 0.02 0.02 0.03 0.04 0.05 0.05 0.05 0.04 0.05 0.05 0.06 0.06 0.05 0.05 0.05 0.06 0.08 0.06 0.04 0.03 0.03 0.02 0.02 0.06 0.06 0.02 0.02 0.02 0.02 0.05 0.05 0.07 0.08 0.07 0.07 0.06 0.07 0.07 0.06 0.06 0.05
0.03 0.02 0.02 0.02 0.02 0.04 0.04 0.06 0.05 0.05 0.05 0.04 0.05 0.06 0.05 0.05 0.03 0.04 0.06 0.05 0.05 0.04 0.05 0.05 0.03 0.04 0.04 0.06 0.04 0.02 0.01 0.03 0.07 0.08 0.09 0.10 0.10 0.09 0.09 0.09 0.07 0.06 0.04
0.03 0.02 0.02 0.02 0.02 0.03 0.04 0.03 0.04 0.05 0.06 0.05 0.05 0.05 0.05 0.04 0.03 0.04 0.04 0.04 0.05 0.05 0.06 0.06 0.05 0.02 0.06 0.16 0.10 0.04 0.02 0.04 0.08 0.13 0.11 0.10 0.09 0.08 0.08 0.08 0.08 0.05 0.03
0.04 0.04 0.03 0.03 0.02 0.03 0.03 0.04 0.05 0.05 0.05 0.05 0.05 0.05 0.03 0.03 0.03 0.03 0.03 0.04 0.05 0.04 0.04 0.02 0.02 0.02 0.11 0.16 0.10 0.04 0.03 0.06 0.08 0.10 0.10 0.08 0.06 0.06 0.06 0.05 0.04 0.04 0.03
0.06 0.05 0.05 0.04 0.03 0.03 0.03 0.04 0.04 0.04 0.04 0.04 0.04 0.05 0.04 0.04 0.04 0.03 0.03 0.03 0.05 0.05 0.03 0.01 0.01 0.03 0.06 0.05 0.04 0.03 0.03 0.04 0.05 0.06 0.05 0.04 0.03 0.03 0.04 0.04 0.03 0.03 0.02
0.05 0.04 0.04 0.03 0.03 0.04 0.04 0.04 0.04 0.04 0.04 0.03 0.03 0.05 0.04 0.05 0.05 0.04 0.04 0.04 0.05 0.06 0.05 0.04 0.04 0.04 0.04 0.03 0.03 0.04 0.03 0.02 0.03 0.06 0.05 0.04 0.03 0.02 0.02 0.02 0.02 0.02 0.02
0.04 0.03 0.04 0.04 0.04 0.04 0.05 0.05 0.04 0.04 0.04 0.04 0.04 0.04 0.04 0.04 0.05 0.06 0.07 0.06 0.06 0.05 0.06 0.05 0.04 0.05 0.04 0.03 0.03 0.03 0.03 0.04 0.03 0.03 0.04 0.04 0.03 0.03 0.02 0.02 0.02 0.01 0.01
0.04 0.03 0.03 0.04 0.04 0.04 0.03 0.04 0.04 0.03 0.03 0.03 0.03 0.03 0.03 0.04 0.06 0.07 0.06 0.05 0.05 0.05 0.05 0.05 0.05 0.05 0.05 0.04 0.05 0.04 0.04 0.05 0.04 0.02 0.03 0.02 0.03 0.04 0.03 0.02 0.02 0.02 0.01
0.04 0.04 0.04 0.04 0.04 0.04 0.02 0.02 0.03 0.03 0.04 0.03 0.02 0.02 0.02 0.03 0.04 0.04 0.03 0.04 0.04 0.03 0.04 0.04 0.04 0.04 0.04 0.04 0.04 0.05 0.05 0.07 0.05 0.03 0.03 0.03 0.02 0.03 0.03 0.02 0.02 0.02 0.02
0.05 0.05 0.04 0.04 0.05 0.05 0.03 0.02 0.01 0.02 0.03 0.02 0.02 0.02 0.03 0.03 0.03 0.01 0.01 0.01 0.02 0.03 0.03 0.03 0.04 0.04 0.03 0.03 0.05 0.05 0.05 0.06 0.06 0.05 0.04 0.02 0.02 0.03 0.02 0.03 0.03 0.02 0.02
0.05 0.05 0.06 0.05 0.05 0.06 0.06 0.03 0.01 0.01 0.01 0.01 0.02 0.02 0.02 0.02 0.03 0.03 0.01 0.01 0.01 0.01 0.01 0.02 0.02 0.03 0.03 0.04 0.05 0.05 0.06 0.05 0.05 0.05 0.06 0.04 0.04 0.05 0.03 0.03 0.05 0.04 0.04
0.08 0.09 0.08 0.05 0.05 0.04 0.03 0.02 0.02 0.01 0.01 0.02 0.03 0.03 0.03 0.03 0.03 0.04 0.03 0.03 0.02 0.01 0.01 0.01 0.01 0.01 0.01 0.02 0.04 0.04 0.05 0.05 0.04 0.04 0.06 0.04 0.06 0.06 0.04 0.04 0.04 0.04 0.05
0.04 0.05 0.05 0.05 0.07 0.08 0.07 0.05 0.05 0.03 0.03 0.04 0.04 0.03 0.03 0.03 0.05 0.05 0.05 0.04 0.02 0.02 0.01 0.01 0.01 0.01 0.01 0.01 0.02 0.03 0.03 0.04 0.03 0.03 0.04 0.03 0.03 0.04 0.04 0.04 0.03 0.03 0.04
0.03 0.04 0.03 0.04 0.05 0.09 0.11 0.06 0.05 0.04 0.04 0.03 0.04 0.04 0.03 0.03 0.04 0.05 0.05 0.04 0.03 0.03 0.04 0.04 0.03 0.02 0.02 0.02 0.02 0.02 0.02 0.03 0.03 0.03 0.03 0.03 0.03 0.04 0.03 0.02 0.02 0.03 0.04
MSLP
1012.08 1012.05 1011.97 1011.87 1011.80 1011.77 1011.80 1011.87 1011.98 1012.10 1012.21 1012.30 1012.39 1012.49 1012.64 1012.84 1013.11 1013.45 1013.81 1014.19 1014.53 1014.81 1015.04 1015.21 1015.35 1015.49 1015.66 1015.88 1016.16 1016.48 1016.82 1017.16 1017.46 1017.71 1017.90 1018.03 1018.12 1018.19 1018.27 1018.35 1018.46 1018.59 1018.74
1012.32 1012.31 1012.25 1012.16 1012.08 1012.05 1012.07 1012.15 1012.27 1012.41 1012.55 1012.68 1012.80 1012.92 1013.04 1013.20 1013.39 1013.63 1013.89 1014.18 1014.46 1014.73 1014.98 1015.21 1015.44 1015.66 1015.90 1016.16 1016.43 1016.70 1016.97 1017.20 1017.40 1017.56 1017.68 1017.78 1017.88 1017.98 1018.09 1018.24 1018.40 1018.58 1018.75
1012.52 1012.55 1012.52 1012.46 1012.41 1012.38 1012.41 1012.49 1012.62 1012.77 1012.94 1013.10 1013.25 1013.38 1013.50 1013.62 1013.75 1013.90 1014.07 1014.27 1014.49 1014.73 1014.99 1015.26 1015.54 1015.83 1016.11 1016.38 1016.62 1016.83 1017.00 1017.13 1017.22 1017.29 1017.35 1017.42 1017.52 1017.65 1017.82 1018.02 1018.23 1018.46 1018.67
1012.65 1012.72 1012.74 1012.73 1012.72 1012.73 1012.77 1012.86 1012.99 1013.15 1013.34 1013.52 1013.69 1013.84 1013.97 1014.07 1014.15 1014.24 1014.33 1014.45 1014.60 1014.80 1015.04 1015.31 1015.62 1015.93 1016.23 1016.50 1016.71 1016.86 1016.95 1016.98 1016.97 1016.96 1016.97 1017.01 1017.11 1017.27 1017.48 1017.72 1017.98 1018.23 1018.46
1012.72 1012.82 1012.89 1012.94 1012.99 1013.04 1013.11 1013.20 1013.34 1013.50 1013.69 1013.88 1014.07 1014.24 1014.37 1014.47 1014.53 1014.57 1014.60 1014.65 1014.73 1014.86 1015.05 1015.31 1015.60 1015.92 1016.22 1016.48 1016.67 1016.78 1016.82 1016.79 1016.73 1016.66 1016.63 1016.65 1016.75 1016.91 1017.13 1017.39 1017.66 1017.92 1018.15
1012.75 1012.86 1012.97 1013.08 1013.19 1013.28 1013.38 1013.49 1013.61 1013.76 1013.94 1014.13 1014.32 1014.50 1014.65 1014.75 1014.81 1014.81 1014.79 1014.77 1014.78 1014.84 1014.97 1015.18 1015.44 1015.75 1016.05 1016.31 1016.51 1016.62 1016.65 1016.61 1016.53 1016.45 1016.40 1016.41 1016.49 1016.64 1016.85 1017.09 1017.34 1017.58 1017.79
1012.77 1012.88 1013.02 1013.19 1013.34 1013.48 1013.60 1013.71 1013.81 1013.93 1014.07 1014.24 1014.42 1014.60 1014.76 1014.87 1014.93 1014.92 1014.86 1014.78 1014.72 1014.70 1014.76 1014.91 1015.14 1015.42 1015.72 1016.01 1016.24 1016.40 1016.47 1016.47 1016.43 1016.37 1016.33 1016.33 1016.39 1016.51 1016.68 1016.88 1017.08 1017.28 1017.46
1012.82 1012.92 1013.09 1013.29 1013.48 1013.66 1013.79 1013.88 1013.95 1014.02 1014.11 1014.24 1014.39 1014.56 1014.72 1014.84 1014.90 1014.88 1014.81 1014.69 1014.56 1014.47 1014.46 1014.54 1014.72 1014.98 1015.29 1015.62 1015.91 1016.15 1016.31 1016.39 1016.42 1016.41 1016.40 1016.41 1016.45 1016.53 1016.64 1016.78 1016.92 1017.07 1017.21
1012.93 1013.01 1013.19 1013.41 1013.64 1013.83 1013.97 1014.04 1014.07 1014.08 1014.11 1014.18 1014.29 1014.43 1014.59 1014.72 1014.79 1014.78 1014.69 1014.54 1014.37 1014.22 1014.13 1014.14 1014.27 1014.51 1014.83 1015.19 1015.56 1015.89 1016.15 1016.35 1016.47 1016.53 1016.57 1016.59 1016.62 1016.66 1016.72 1016.80 1016.88 1016.98 1017.08
1013.07 1013.14 1013.32 1013.57 1013.82 1014.02 1014.16 1014.21 1014.19 1014.15 1014.12 1014.12 1014.19 1014.31 1014.45 1014.59 1014.68 1014.69 1014.60 1014.44 1014.24 1014.04 1013.88 1013.83 1013.90 1014.10 1014.41 1014.80 1015.22 1015.63 1016.00 1016.29 1016.51 1016.66 1016.75 1016.79 1016.82 1016.84 1016.86 1016.89 1016.94 1017.00 1017.08
1013.22 1013.28 1013.47 1013.72 1013.99 1014.21 1014.34 1014.38 1014.33 1014.24 1014.15 1014.11 1014.13 1014.23 1014.37 1014.52 1014.63 1014.67 1014.61 1014.45 1014.23 1013.99 1013.78 1013.66 1013.66 1013.80 1014.08 1014.46 1014.90 1015.36 1015.80 1016.18 1016.47 1016.69 1016.83 1016.92 1016.96 1016.98 1016.99 1017.00 1017.03 1017.08 1017.15
1013.33 1013.38 1013.57 1013.84 1014.12 1014.35 1014.49 1014.52 1014.45 1014.33 1014.21 1014.13 1014.13 1014.21 1014.35 1014.52 1014.66 1014.74 1014.71 1014.57 1014.35 1014.08 1013.83 1013.64 1013.56 1013.63 1013.84 1014.17 1014.60 1015.06 1015.52 1015.94 1016.29 1016.56 1016.75 1016.88 1016.95 1016.99 1017.02 1017.05 1017.10 1017.16 1017.25
1013.34 1013.40 1013.59 1013.86 1014.15 1014.39 1014.54 1014.58 1014.51 1014.38 1014.25 1014.15 1014.13 1014.20 1014.35 1014.54 1014.72 1014.83 1014.84 1014.74 1014.53 1014.25 1013.96 1013.71 1013.56 1013.54 1013.66 1013.92 1014.27 1014.70 1015.14 1015.56 1015.93 1016.23 1016.46 1016.63 1016.76 1016.85 1016.93 1017.00 1017.10 1017.20 1017.32
1013.25 1013.31 1013.49 1013.76 1014.06 1014.31 1014.47 1014.52 1014.46 1014.34 1014.20 1014.09 1014.07 1014.14 1014.29 1014.50 1014.70 1014.85 1014.91 1014.84 1014.66 1014.39 1014.08 1013.78 1013.56 1013.45 1013.48 1013.63 1013.90 1014.25 1014.64 1015.03 1015.39 1015.71 1015.97 1016.19 1016.37 1016.53 1016.68 1016.83 1016.99 1017.16 1017.32
1013.07 1013.12 1013.30 1013.56 1013.84 1014.09 1014.26 1014.32 1014.27 1014.16 1014.02 1013.91 1013.88 1013.94 1014.09 1014.30 1014.52 1014.70 1014.79 1014.76 1014.61 1014.36 1014.05 1013.74 1013.46 1013.29 1013.22 1013.28 1013.46 1013.72 1014.04 1014.38 1014.72 1015.04 1015.33 1015.60 1015.84 1016.07 1016.31 1016.54 1016.78 1017.02 1017.24
1012.83 1012.87 1013.03 1013.26 1013.53 1013.76 1013.92 1013.98 1013.94 1013.83 1013.69 1013.58 1013.53 1013.57 1013.70 1013.89 1014.11 1014.30 1014.41 1014.42 1014.30 1014.09 1013.81 1013.49 1013.21 1012.99 1012.86 1012.85 1012.95 1013.13 1013.39 1013.68 1013.99 1014.31 1014.62 1014.92 1015.22 1015.52 1015.83 1016.15 1016.47 1016.77 1017.05
1012.57 1012.60 1012.73 1012.92 1013.15 1013.35 1013.49 1013.54 1013.50 1013.38 1013.24 1013.10 1013.03 1013.03 1013.12 1013.28 1013.47 1013.65 1013.77 1013.80 1013.73 1013.56 1013.31 1013.03 1012.76 1012.54 1012.39 1012.35 1012.39 1012.53 1012.73 1012.99 1013.27 1013.58 1013.90 1014.23 1014.57 1014.93 1015.30 1015.68 1016.06 1016.43 1016.76
1012.32 1012.33 1012.41 1012.56 1012.74 1012.90 1013.01 1013.04 1012.98 1012.86 1012.70 1012.54 1012.43 1012.39 1012.43 1012.54 1012.69 1012.84 1012.95 1012.99 1012.95 1012.82 1012.63 1012.40 1012.18 1011.98 1011.85 1011.80 1011.83 1011.94 1012.12 1012.35 1012.61 1012.90 1013.22 1013.56 1013.92 1014.31 1014.72 1015.14 1015.57 1015.98 1016.36
1012.07 1012.05 1012.09 1012.19 1012.31 1012.42 1012.49 1012.50 1012.42 1012.29 1012.12 1011.95 1011.81 1011.73 1011.72 1011.78 1011.88 1011.99 1012.07 1012.12 1012.09 1012.01 1011.87 1011.70 1011.52 1011.38 1011.28 1011.25 1011.29 1011.39 1011.56 1011.76 1012.01 1012.28 1012.58 1012.91 1013.27 1013.66 1014.07 1014.51 1014.96 1015.41 1015.83
1011.79 1011.73 1011.72 1011.77 1011.83 1011.90 1011.93 1011.92 1011.84 1011.70 1011.54 1011.36 1011.22 1011.11 1011.07 1011.08 1011.14 1011.21 1011.27 1011.30 1011.28 1011.22 1011.12 1010.99 1010.87 1010.77 1010.71 1010.70 1010.75 1010.86 1011.01 1011.20 1011.42 1011.66 1011.93 1012.23 1012.57 1012.94 1013.34 1013.78 1014.23 1014.70 1015.15
1011.43 1011.33 1011.28 1011.26 1011.28 1011.31 1011.32 1011.29 1011.22 1011.10 1010.96 1010.81 1010.68 1010.58 1010.53 1010.52 1010.55 1010.58 1010.61 1010.62 1010.60 1010.54 1010.45 1010.34 1010.24 1010.17 1010.13 1010.13 1010.18 1010.28 1010.41 1010.57 1010.76 1010.96 1011.20 1011.46 1011.76 1012.09 1012.48 1012.90 1013.36 1013.84 1014.33
1010.97 1010.82 1010.72 1010.67 1010.64 1010.64 1010.63 1010.61 1010.56 1010.48 1010.38 1010.29 1010.20 1010.14 1010.10 1010.10 1010.11 1010.13 1010.13 1010.11 1010.06 1009.97 1009.87 1009.75 1009.64 1009.55 1009.49 1009.48 1009.50 1009.57 1009.66 1009.79 1009.93 1010.10 1010.29 1010.52 1010.78 1011.09 1011.45 1011.87 1012.34 1012.84 1013.37
1010.41 1010.23 1010.09 1009.99 1009.94 1009.91 1009.90 1009.88 1009.86 1009.84 1009.80 1009.77 1009.75 1009.74 1009.75 1009.77 1009.79 1009.79 1009.77 1009.71 1009.61 1009.48 1009.32 1009.15 1008.99 1008.85 1008.74 1008.67 1008.64 1008.65 1008.69 1008.77 1008.87 1009.00 1009.16 1009.36 1009.60 1009.91 1010.27 1010.70 1011.19 1011.73 1012.32
1009.83 1009.61 1009.44 1009.32 1009.24 1009.19 1009.18 1009.18 1009.19 1009.21 1009.23 1009.27 1009.31 1009.37 1009.42 1009.47 1009.50 1009.50 1009.44 1009.34 1009.18 1008.98 1008.74 1008.48 1008.23 1008.00 1007.80 1007.64 1007.53 1007.47 1007.46 1007.48 1007.54 1007.64 1007.79 1007.99 1008.24 1008.56 1008.96 1009.42 1009.97 1010.57 1011.21
1009.33 1009.10 1008.91 1008.77 1008.67 1008.62 1008.59 1008.60 1008.62 1008.67 1008.73 1008.81 1008.90 1009.00 1009.09 1009.16 1009.19 1009.16 1009.07 1008.91 1008.68 1008.39 1008.05 1007.69 1007.33 1006.98 1006.67 1006.41 1006.21 1006.07 1005.98 1005.96 1005.99 1006.08 1006.23 1006.45 1006.74 1007.11 1007.57 1008.10 1008.71 1009.39 1010.11
1009.04 1008.81 1008.63 1008.48 1008.38 1008.31 1008.27 1008.26 1008.28 1008.32 1008.39 1008.47 1008.57 1008.68 1008.77 1008.83 1008.84 1008.77 1008.63 1008.40 1008.09 1007.71 1007.27 1006.79 1006.31 1005.85 1005.43 1005.06 1004.76 1004.53 1004.38 1004.31 1004.32 1004.41 1004.59 1004.84 1005.19 1005.63 1006.16 1006.77 1007.46 1008.22 1009.02
Thickness
5784 5784 5783 5782 5782 5781 5780 5779 5778 5777 5777 5775 5774 5773 5773 5771 5769 5766 5762 5760 5759 5757 5756 5754 5752 5750 5748 5747 5745 5743 5742 5740 5738 5737 5736 5734 5733 5732 5731 5730 5729 5729 5727
5785 5785 5784 5783 5783 5782 5781 5780 5779 5778 5776 5775 5774 5773 5772 5771 5769 5766 5762 5760 5758 5757 5756 5754 5752 5751 5749 5746 5745 5743 5741 5739 5737 5736 5735 5734 5733 5732 5731 5730 5728 5727 5726
5786 5786 5785 5783 5784 5784 5783 5780 5779 5778 5776 5775 5773 5773 5772 5771 5769 5767 5764 5761 5759 5757 5756 5754 5752 5751 5749 5746 5744 5742 5740 5739 5737 5736 5734 5733 5733 5731 5731 5729 5728 5727 5725
5787 5786 5785 5784 5784 5784 5783 5780 5779 5777 5775 5775 5773 5773 5772 5771 5769 5767 5766 5763 5760 5758 5755 5754 5752 5750 5748 5746 5744 5742 5740 5738 5736 5735 5734 5733 5732 5731 5731 5729 5728 5726 5725
5788 5788 5787 5785 5784 5783 5783 5782 5779 5777 5775 5774 5774 5773 5773 5771 5770 5769 5767 5765 5763 5760 5757 5754 5752 5750 5748 5746 5743 5741 5739 5737 5736 5735 5733 5732 5732 5731 5731 5730 5728 5727 5724
5789 5789 5788 5786 5786 5784 5782 5781 5778 5778 5777 5775 5775 5773 5773 5773 5772 5770 5768 5766 5764 5762 5758 5755 5752 5749 5747 5745 5743 5740 5738 5737 5735 5734 5733 5732 5731 5731 5730 5729 5728 5726 5724
5790 5790 5789 5787 5786 5784 5782 5781 5779 5776 5775 5776 5771 5767 5770 5773 5772 5771 5769 5767 5765 5763 5760 5756 5753 5750 5747 5745 5742 5740 5738 5736 5735 5733 5732 5731 5730 5730 5729 5728 5726 5725 5723
5791 5791 5788 5787 5786 5784 5783 5781 5779 5775 5775 5776 5769 5763 5758 5761 5766 5771 5769 5767 5765 5763 5760 5758 5755 5752 5749 5745 5742 5740 5737 5736 5734 5733 5731 5730 5729 5728 5727 5726 5725 5723 5722
5791 5790 5789 5788 5787 5786 5782 5781 5779 5776 5772 5774 5774 5766 5756 5750 5756 5763 5766 5766 5764 5762 5761 5760 5757 5754 5751 5746 5743 5740 5737 5735 5733 5732 5730 5729 5728 5727 5725 5724 5723 5722 5720
5793 5792 5791 5789 5787 5786 5784 5782 5781 5779 5774 5770 5772 5773 5770 5765 5754 5751 5759 5763 5763 5762 5761 5760 5758 5756 5752 5748 5744 5741 5738 5735 5733 5731 5730 5728 5727 5725 5724 5723 5722 5720 5719
5794 5793 5792 5790 5788 5786 5785 5783 5781 5779 5777 5773 5771 5771 5770 5768 5765 5755 5750 5755 5758 5760 5760 5760 5759 5757 5754 5750 5746 5742 5738 5735 5733 5731 5729 5727 5726 5724 5723 5722 5720 5719 5717
5795 5794 5792 5790 5788 5787 5785 5783 5781 5779 5777 5775 5774 5772 5769 5765 5762 5759 5753 5752 5753 5757 5760 5760 5758 5756 5753 5751 5748 5743 5738 5735 5732 5730 5728 5726 5724 5723 5721 5720 5719 5717 5716
5794 5793 5793 5790 5788 5787 5785 5784 5781 5779 5778 5775 5773 5772 5772 5770 5768 5764 5758 5754 5753 5755 5757 5758 5758 5754 5751 5750 5747 5742 5738 5735 5732 5730 5727 5725 5723 5721 5719 5718 5717 5715 5713
5797 5796 5794 5791 5789 5787 5786 5783 5782 5780 5778 5776 5775 5773 5771 5771 5770 5766 5761 5755 5748 5749 5751 5752 5756 5755 5751 5747 5743 5740 5737 5733 5731 5728 5726 5723 5721 5719 5717 5715 5714 5712 5710
5798 5796 5794 5790 5788 5786 5784 5782 5780 5779 5777 5775 5773 5772 5770 5770 5770 5768 5765 5760 5750 5742 5742 5747 5749 5752 5750 5746 5741 5738 5736 5733 5730 5727 5724 5721 5719 5717 5715 5712 5710 5709 5707
5797 5795 5792 5790 5787 5786 5784 5781 5779 5778 5776 5774 5772 5769 5768 5767 5767 5766 5764 5761 5757 5748 5742 5747 5748 5750 5748 5745 5740 5737 5735 5732 5728 5725 5722 5720 5717 5715 5712 5710 5708 5705 5704
5795 5792 5790 5788 5786 5784 5782 5780 5778 5777 5774 5772 5770 5768 5766 5765 5763 5762 5761 5759 5756 5752 5744 5745 5747 5747 5745 5742 5738 5737 5735 5731 5727 5724 5721 5718 5716 5713 5710 5707 5704 5702 5700
5793 5791 5788 5786 5784 5782 5780 5778 5776 5775 5772 5769 5767 5766 5763 5763 5760 5758 5756 5754 5752 5751 5745 5740 5742 5742 5741 5740 5737 5735 5734 5731 5728 5725 5721 5718 5715 5711 5708 5704 5702 5699 5697
5791 5789 5787 5784 5782 5780 5778 5777 5775 5773 5771 5768 5766 5763 5761 5759 5756 5754 5752 5750 5749 5749 5745 5740 5738 5740 5738 5737 5733 5731 5730 5729 5727 5725 5720 5716 5713 5709 5705 5702 5699 5696 5694
5788 5786 5784 5782 5780 5778 5776 5774 5773 5770 5768 5766 5765 5762 5759 5756 5753 5750 5749 5746 5745 5742 5740 5737 5735 5734 5733 5732 5728 5724 5722 5723 5722 5722 5718 5715 5711 5707 5703 5700 5697 5694 5691
5786 5784 5782 5780 5778 5776 5774 5771 5769 5768 5765 5763 5761 5759 5757 5754 5751 5748 5745 5742 5739 5736 5733 5731 5728 5727 5726 5723 5720 5719 5716 5716 5717 5717 5713 5711 5708 5703 5700 5696 5693 5691 5688
5783 5781 5778 5777 5774 5773 5770 5767 5765 5764 5762 5759 5757 5756 5754 5751 5748 5745 5741 5738 5735 5731 5727 5724 5722 5719 5718 5718 5716 5713 5710 5707 5705 5711 5707 5706 5705 5701 5699 5695 5692 5688 5685
5780 5777 5775 5772 5769 5767 5765 5763 5760 5759 5758 5756 5754 5752 5751 5750 5745 5742 5738 5734 5731 5728 5724 5720 5716 5715 5713 5713 5709 5706 5703 5701 5700 5704 5701 5698 5700 5696 5695 5693 5690 5686 5682
5777 5774 5772 5770 5768 5765 5762 5759 5757 5755 5754 5753 5751 5749 5746 5743 5741 5737 5734 5730 5727 5724 5720 5716 5714 5713 5712 5709 5706 5702 5699 5698 5698 5699 5697 5691 5693 5692 5693 5689 5686 5683 5679
5773 5772 5771 5768 5765 5761 5758 5755 5752 5751 5749 5749 5748 5746 5743 5740 5735 5731 5727 5723 5721 5719 5718 5714 5711 5709 5706 5703 5700 5695 5691 5688 5686 5688 5691 5686 5686 5685 5685 5683 5680 5677 5674
5769 5768 5766 5765 5761 5758 5754 5750 5747 5746 5744 5744 5743 5741 5738 5734 5729 5725 5721 5717 5713 5712 5710 5708 5704 5702 5699 5697 5694 5689 5685 5680 5679 5679 5683 5679 5677 5676 5674 5677 5675 5671 5667